Starlink 1631

decayed
NORAD ID: 46151 Int'l Des: 2020-057 Owner: SPXS Country: US Constellation: starlink
LEOCIRCULAR
グループ

Starlink 1631について

説明を読み込み中...

高度履歴

Altitude vs Time

uPlot chart will show altitude changes over time

軌道要素

1 46151U 20057AL 25156.78219249 .17231246 12432-4 65173-3 0 9999
2 46151 53.0215 54.6051 0008650 259.7308 207.7575 16.43449201265896
Epoch: Jun 5, 2025 • Age: 4671 hours

現在のステータス

Position data unavailable
打ち上げ日 Aug 18, 2020
運用期間 5.3 years
落下予定日 Jun 5, 2025
タイプ internet

技術仕様

分類 Payload
質量 260.00 kg
乾燥質量 248.00 kg
総質量 260.00 kg
長さ 0.20 m
直径 2.80 m
スパン 9.00 m
形状 Box + pan
製造者 SPXS
バスタイプ Starlink
フェーズステータス Reentered
所有者/国 SPXS/US

大規模コンステレーション

Loading constellations...